Location: St. Louis
(38.6270°N, 90.1994°W)
Time: 20:32:47
(UTC-06:00)

Vanguard 3 - Pass Details

Date: 29 November 2021
Orbit: 508 x 3260 km, 33.3° (Epoch: 19 January)

Event Time Altitude Azimuth Distance (km) Brightness Sun altitude
Exits shadow 02:04:00 20° 167° (SSE) 5,335 11.1 -56.5°
Maximum altitude 02:11:11 25° 140° (SE) 4,960 11.1 -55.2°
Drops below altitude 10° 02:24:07 10° 94° (E) 5,628 11.8 -52.7°
Sets 02:29:06 0° 82° (E) 6,298 12.3 -51.8°
